Regional Weather Roundup
Issued by NWS

Home | Current Version | Previous Version | Text Only | Print | Product List | Glossary On
Versions: 1 2 3 4 5 6 7 8 9 10 11 12 13 14 15 16 17 18 19 20 21 22 23 24 25 26 27 28 29 30 31 32 33 34 35 36 37 38 39 40 41 42 43 44 45 46 47 48 49 50
000
ASUS43 KLSX 291859
RWRMO

WEATHER SUMMARY FOR MISSOURI
NATIONAL WEATHER SERVICE SPRINGFIELD MO
200 PM CDT WED JUL 29 2015

NOTE: "FAIR" INDICATES FEW OR NO CLOUDS BELOW 12,000 FEET WITH NO
       SIGNIFICANT WEATHER AND/OR OBSTRUCTIONS TO VISIBILITY.
       CURRENT SKY AND/OR WEATHER CONDITIONS ARE NOT AVAILABLE FOR
       CHILLICOTHE AND FARMINGTON.

MOZ001>031-035>038-043-044-053-054-292000-
...NORTHERN AND WESTERN MISSOURI...

CITY           SKY/WX    TMP DP  RH WIND       PRES   REMARKS
KANSAS CTY INT PTSUNNY   83  68  60 N10       30.16S
KANSAS C DTWN  CLOUDY    86  66  51 NE9       30.14S
LEE`S SUMMIT   SUNNY     83  67  58 N8        30.15F
ST JOSEPH      MOSUNNY   83  65  54 NE6       30.15S
CHILLICOTHE      N/A     84  66  54 VRB6      30.15R
KIRKSVILLE     MOSUNNY   83  63  50 N7        30.15R

$$
MOZ066>068-077>081-088>096-101>105-292000-
...SOUTHWEST MISSOURI...

CITY           SKY/WX    TMP DP  RH WIND       PRES   REMARKS
SPRINGFIELD    SUNNY     92  68  45 CALM      30.08S HX  96
JOPLIN         SUNNY     95  71  45 VRB6      30.07S HX 102

$$
MOZ032>034-039>042-045>050-055>058-069>072-292000-
...CENTRAL MISSOURI...

CITY           SKY/WX    TMP DP  RH WIND       PRES   REMARKS
COLUMBIA       SUNNY     85  66  53 N10G20    30.11S
JEFFERSON CITY SUNNY     85  65  51 N10       30.08F
ROLLA          PTSUNNY   84  69  60 N9        30.09F
SEDALIA        MOSUNNY   86  66  51 N12       30.14R
OSAGE BEACH    MOSUNNY   84  70  61 NE8       30.10S

$$
MOZ051-052-059>065-292000-
...EAST CENTRAL MISSOURI...

CITY           SKY/WX    TMP DP  RH WIND       PRES   REMARKS
ST LOUIS INTL  PTSUNNY   91  73  55 N8G17     30.05S HX  99
SPIRIT OF STL  PTSUNNY   87  73  62 VRB7      30.05R HX  94
ST CHARLES     PTSUNNY   87  76  69 NW9       30.05R HX  97

$$
MOZ072>076-082>087-097>100-106>115-292000-
...SOUTH CENTRAL AND SOUTHEAST MISSOURI...

CITY           SKY/WX    TMP DP  RH WIND       PRES   REMARKS
CAPE GIRARDEAU SUNNY     95  76  53 W8        29.98F HX 108
FARMINGTON     MOSUNNY   88  77  70 N12G17    30.09R HX 100
POPLAR BLUFF   SUNNY     96  76  52 NW5       29.99S HX 109
WEST PLAINS    MOSUNNY   93  73  52 VRB3      30.09R HX 102

$$



USA.gov is the U.S. government's official web portal to all federal, state and local government web resources and services.